GFSMA_850_thetae_057.txt.gz
Theta_e
310 312 314 318 323 323 325 330 333 336 335 332 330 330 330 327 321 318 315 321 324 325 326 328 328 327 324 322 317 316 323 334 335 334 328 329 333 332 331 326 323 319 319
304 304 305 305 305 305 306 309 316 321 324 327 334 332 330 329 327 322 318 316 319 319 322 326 328 329 327 322 317 315 315 323 333 335 334 331 330 332 331 328 326 325 323
303 303 303 303 303 303 303 303 303 305 306 308 310 316 326 329 328 324 319 317 315 315 315 317 325 328 328 324 319 313 314 314 327 333 335 334 331 331 330 330 328 326 325
301 302 302 302 301 302 302 303 303 303 303 303 303 304 306 310 324 327 322 319 316 315 314 314 317 323 324 323 319 314 311 312 313 327 332 335 333 331 331 331 329 328 325
302 301 301 301 301 301 302 302 303 303 303 303 304 303 303 304 305 308 323 326 320 317 316 315 313 315 317 319 317 315 311 310 310 313 328 333 336 334 334 332 330 329 328
301 301 301 300 300 300 300 301 301 303 304 304 304 304 303 303 303 303 303 306 324 326 320 317 316 314 315 317 318 315 314 311 310 309 313 329 333 334 334 333 332 330 330
300 300 300 300 300 299 299 300 300 301 302 304 304 304 303 303 303 303 304 305 305 313 326 326 319 316 313 315 315 315 314 313 318 310 309 312 325 327 330 333 332 332 332
300 299 299 299 299 299 299 299 300 300 301 303 303 303 303 304 304 309 311 311 311 313 317 322 324 319 316 313 317 315 313 313 318 324 318 313 314 325 327 329 331 331 331
301 299 299 298 298 298 298 298 299 299 300 301 302 302 304 305 304 304 304 303 303 303 307 311 315 319 320 313 314 319 315 314 313 320 324 324 323 323 325 327 329 328 329
301 299 298 298 297 297 297 298 298 299 300 300 300 301 302 302 303 305 304 304 304 302 302 304 305 306 314 317 312 316 318 314 314 312 320 323 325 324 326 324 325 327 324
300 298 298 297 297 297 297 298 298 298 299 300 300 301 301 301 301 301 302 304 304 304 303 302 302 303 307 309 315 313 317 316 314 313 311 319 322 324 322 322 325 327 323
299 298 297 297 297 297 297 297 297 298 298 298 300 300 300 300 300 301 301 302 304 304 304 303 302 302 304 305 308 314 313 314 315 313 312 311 318 322 320 322 320 319 322
297 297 296 297 296 296 296 297 297 298 298 298 298 298 298 299 300 300 300 301 302 302 304 304 303 302 301 304 306 307 313 313 314 314 313 312 312 317 319 321 320 318 318
296 296 296 296 296 296 296 296 297 298 298 298 298 298 297 297 298 299 299 300 301 302 302 303 303 303 302 301 304 307 308 314 312 314 314 313 311 312 316 318 320 320 319
296 296 295 295 295 295 295 295 295 295 295 295 295 295 296 296 296 296 298 299 300 301 302 302 302 302 302 301 304 306 307 310 313 313 313 314 312 312 313 316 318 318 318
295 295 295 294 294 294 294 294 294 295 295 295 295 295 296 296 296 296 296 297 299 300 301 301 301 302 301 303 303 306 307 308 313 312 313 313 314 312 311 314 317 318 318
294 294 294 294 294 294 294 294 294 294 294 295 294 295 295 295 295 295 296 298 299 299 300 300 300 300 301 303 303 305 305 307 309 313 313 313 313 314 312 311 314 319 318
294 294 294 294 294 294 294 294 294 294 294 294 294 295 295 295 295 295 295 295 297 299 300 300 301 301 302 302 302 305 305 305 308 312 313 313 313 312 311 310 310 316 320
293 294 294 294 293 294 294 294 294 294 294 294 294 294 295 295 295 295 295 295 296 297 298 299 300 301 301 302 302 302 306 306 308 309 312 313 313 311 311 311 310 311 314
293 294 294 294 294 294 294 294 294 294 294 294 294 295 295 296 295 295 296 295 296 298 299 300 300 301 302 302 302 304 305 307 308 311 310 312 313 313 311 311 310 308 310
293 293 294 294 294 294 294 295 295 296 296 296 296 296 296 297 296 296 296 296 296 297 299 299 300 301 302 303 304 304 306 307 307 310 312 310 312 312 312 311 311 310 308
293 294 294 295 295 295 296 295 296 297 297 297 297 296 297 296 296 297 299 299 300 297 298 298 298 301 302 303 304 306 306 307 308 308 310 312 312 312 312 312 311 310 309
294 294 295 296 296 297 299 297 296 297 297 298 298 297 298 296 296 297 296 297 299 300 300 298 299 300 302 303 304 304 305 305 306 307 309 310 311 312 312 311 310 310 308
294 295 296 297 297 299 299 299 299 299 298 297 297 297 297 296 295 296 296 296 297 297 297 298 300 300 301 302 302 303 304 304 306 306 308 309 310 310 311 310 310 308 309
295 296 297 297 298 300 298 299 299 299 298 298 298 298 297 295 295 295 297 297 297 298 299 299 299 301 302 302 303 304 304 305 305 305 307 308 307 307 307 309 310 308 307
296 297 297 298 298 300 299 299 299 299 299 297 297 298 296 295 295 296 297 297 299 298 298 299 300 301 301 302 303 304 304 305 305 305 307 307 308 308 308 308 308 307 307

GFSMA_850_thetae_060.txt.gz
Theta_e
304 305 306 307 309 312 315 316 322 325 327 329 332 332 331 330 330 330 326 320 316 321 323 324 329 332 328 325 322 319 317 325 334 334 330 332 331 333 330 327 321 318 318
303 303 303 303 303 303 303 304 304 305 306 310 316 321 327 331 330 328 328 326 320 316 319 321 323 326 331 329 325 320 316 316 321 334 335 331 331 331 332 330 325 322 318
302 302 302 302 302 302 302 302 302 303 303 303 303 304 306 312 319 326 328 328 324 319 316 316 316 319 325 327 329 323 318 313 314 321 334 335 331 333 333 331 328 325 324
302 301 301 301 301 301 301 301 301 302 302 302 303 303 303 303 304 307 318 327 325 320 317 316 314 314 315 326 327 328 319 315 312 313 328 333 334 332 332 332 330 328 325
302 301 300 300 300 300 300 300 300 300 301 301 302 302 303 303 303 303 303 305 315 325 322 318 315 314 314 316 325 323 325 316 313 311 313 328 333 334 332 332 331 329 328
303 302 300 300 300 300 300 299 299 299 299 300 300 301 301 302 303 303 303 303 303 304 314 325 322 317 316 315 316 325 327 325 315 312 310 312 329 333 335 332 332 331 330
304 303 302 300 299 299 299 299 299 299 299 299 299 300 301 301 302 303 303 303 303 306 306 309 320 324 319 316 315 317 323 327 326 318 311 309 313 329 334 335 334 333 331
304 303 302 300 299 299 298 298 298 298 298 298 299 300 301 301 303 307 308 309 308 308 309 309 314 318 323 324 317 315 318 319 326 325 323 314 309 314 329 331 331 332 332
303 303 302 299 298 298 297 297 297 297 297 298 298 300 301 302 301 301 302 302 302 303 303 303 304 310 313 319 321 318 315 318 317 320 320 322 323 319 317 327 327 330 330
303 302 301 298 298 297 297 297 297 297 297 297 298 298 299 300 300 300 300 301 301 302 302 302 302 302 306 308 315 319 316 314 320 317 316 321 323 323 323 325 327 328 330
303 302 299 297 297 297 296 296 296 296 296 297 297 297 298 299 299 300 300 300 301 301 301 303 303 303 302 303 305 313 315 313 316 320 316 315 322 323 326 326 327 325 328
301 299 297 297 296 296 296 296 296 296 296 296 297 297 298 297 297 298 298 299 300 300 300 300 303 303 303 302 302 306 310 314 313 317 318 315 314 321 323 325 323 325 325
298 297 297 296 296 295 295 295 295 295 295 296 296 297 297 297 297 297 297 297 298 299 299 300 301 302 303 303 302 301 305 308 312 313 317 316 314 313 321 321 321 324 320
297 296 295 295 295 295 295 294 294 294 294 294 294 295 295 295 296 297 297 297 297 297 298 299 300 300 302 302 302 302 301 305 308 312 314 315 314 313 313 319 319 320 320
296 295 294 294 294 294 294 294 294 294 294 294 294 294 294 295 295 295 296 296 296 297 297 298 300 301 301 302 301 302 300 302 306 308 313 313 314 313 313 316 316 318 320
294 294 293 293 293 294 294 294 294 294 294 294 294 294 294 294 295 295 296 296 295 295 297 297 299 300 300 301 301 301 301 304 307 307 311 313 313 314 314 312 314 318 317
294 293 292 292 294 294 294 294 294 294 294 294 294 294 294 294 294 295 295 295 295 295 296 297 299 299 300 300 300 300 301 303 306 307 311 313 313 313 315 313 313 316 317
292 292 293 294 294 294 294 294 294 294 294 294 294 294 294 294 294 294 295 295 295 295 295 296 297 298 299 300 300 300 300 303 304 305 306 313 313 313 313 314 312 313 316
293 294 294 294 294 294 294 294 294 294 294 294 294 294 294 294 294 294 294 294 295 295 295 295 296 297 298 300 300 300 303 303 303 305 306 309 313 313 313 313 313 313 314
294 294 294 293 294 294 295 295 295 295 295 295 295 295 295 295 295 295 295 296 295 295 296 295 297 298 298 298 299 301 301 302 302 304 306 309 313 313 313 313 313 312 311
294 294 293 294 295 295 296 296 295 296 297 297 297 296 296 296 296 296 296 296 296 297 296 296 295 297 297 298 299 301 302 302 301 306 306 309 310 314 313 312 312 312 311
294 294 294 295 296 296 297 296 296 298 298 299 299 298 298 297 297 298 299 299 300 298 299 297 297 297 297 298 299 301 302 302 303 305 306 308 309 311 313 313 312 311 309
295 295 296 296 297 297 297 296 298 299 299 299 300 300 298 297 297 297 297 297 298 299 299 300 298 298 298 298 300 301 303 303 304 305 306 309 311 307 313 312 311 311 310
295 295 296 297 297 298 298 298 299 299 299 299 299 300 299 298 297 297 297 296 295 296 296 297 298 298 298 299 299 301 302 303 306 306 307 309 312 310 308 309 312 311 311
295 296 296 297 297 297 297 298 298 298 299 300 300 299 299 297 297 297 296 296 296 295 296 297 298 297 298 300 300 300 303 302 305 305 306 307 311 310 309 311 311 311 311
296 296 297 298 297 297 297 297 298 299 298 299 299 300 299 298 297 296 297 296 296 296 297 298 299 299 299 300 301 302 302 300 305 305 306 307 309 309 308 310 311 311 310

GFSMA_850_thetae_063.txt.gz
Theta_e
303 303 303 304 304 304 304 305 306 309 312 317 323 327 330 331 330 330 330 330 328 323 317 320 320 327 332 331 323 319 317 316 324 335 332 333 334 332 331 329 321 318 318
304 304 303 303 303 303 303 302 303 303 303 303 304 305 309 318 324 327 331 329 328 328 324 318 318 321 325 330 332 324 318 316 315 321 334 334 332 332 332 331 327 321 318
304 303 302 302 301 301 301 301 301 302 302 302 302 303 303 303 304 309 318 326 329 328 328 324 318 317 318 324 329 329 326 318 313 314 317 332 334 332 332 332 330 325 322
304 303 302 301 300 300 300 300 300 301 301 301 301 302 302 302 303 303 303 305 313 322 327 326 322 318 316 315 320 327 329 328 317 312 313 317 333 334 332 333 332 329 325
304 304 303 302 301 300 300 300 300 300 300 300 300 301 301 301 302 302 303 303 303 303 309 324 326 321 317 315 314 323 327 326 325 316 312 313 324 333 334 333 333 331 328
305 305 304 304 303 300 300 300 300 300 300 299 300 300 301 301 301 301 302 302 303 303 303 303 310 323 323 317 315 314 328 326 324 323 315 311 312 327 332 334 333 332 330
305 305 305 304 303 301 299 299 299 299 300 299 299 300 301 301 301 302 301 302 302 303 303 305 306 306 316 324 320 316 315 327 329 326 324 316 310 312 327 332 334 332 332
304 304 304 303 302 300 299 299 298 298 298 298 297 298 301 300 301 304 304 305 305 306 307 307 307 307 310 314 323 322 316 315 325 328 329 324 318 311 317 327 332 333 333
304 303 303 302 301 299 298 298 298 297 297 297 297 298 300 301 301 299 300 301 301 300 301 301 303 304 304 308 314 319 323 319 315 320 329 327 323 321 313 320 329 333 334
303 303 302 301 300 298 297 297 297 296 296 296 296 296 296 298 299 300 300 301 301 301 301 301 300 301 302 303 305 312 318 321 319 315 318 324 325 322 322 324 324 328 329
303 302 301 300 299 297 297 296 296 295 295 295 296 296 298 298 297 299 299 299 300 301 301 301 302 302 303 303 303 304 308 314 318 316 315 318 321 324 325 323 323 325 327
302 301 300 299 297 296 296 295 295 295 295 295 295 295 296 297 298 299 299 299 299 299 299 300 301 301 301 302 303 303 303 305 312 316 314 320 318 319 326 327 323 324 326
301 300 298 297 296 296 295 295 294 294 294 294 294 295 296 296 297 297 298 298 298 298 299 299 299 300 301 301 302 303 303 302 304 309 312 314 320 317 316 325 324 325 325
298 296 296 295 295 294 294 293 293 294 294 294 294 294 294 295 295 296 296 296 297 297 298 298 298 299 300 300 301 301 302 302 301 304 309 312 315 319 316 315 323 322 323
296 295 295 294 294 293 293 293 294 294 294 294 294 294 294 295 295 295 295 296 296 297 297 298 298 298 299 300 301 302 303 303 301 301 304 309 313 316 317 314 314 321 321
295 294 294 293 293 294 294 294 294 295 294 294 294 294 294 295 295 295 295 295 296 297 297 297 297 298 298 299 301 301 303 301 301 301 302 306 309 313 315 315 313 316 320
294 293 293 293 294 294 294 294 294 294 294 294 294 294 294 294 295 295 295 295 295 296 296 296 297 297 298 299 300 301 302 302 301 301 303 307 307 312 314 315 314 313 315
293 293 293 294 295 295 295 295 295 295 294 294 294 294 294 294 294 294 294 295 295 295 295 296 296 297 297 298 299 300 300 300 301 301 304 307 307 310 313 314 314 313 314
292 293 295 295 295 295 295 295 295 295 294 295 295 295 295 295 295 294 294 294 294 294 295 295 295 296 297 297 298 299 300 299 300 300 301 305 306 311 312 314 314 314 314
292 294 295 295 295 295 295 295 296 295 295 296 297 297 297 297 296 295 295 295 295 295 295 296 296 296 296 297 297 299 299 300 300 301 303 303 304 307 313 313 314 315 314
294 295 295 296 295 296 297 296 296 296 297 297 298 298 298 299 299 297 296 295 296 295 295 295 296 296 297 297 298 299 299 300 301 300 303 302 304 306 311 313 313 314 314
295 295 296 296 296 296 297 297 297 298 298 299 300 300 299 299 300 299 298 299 299 297 297 297 297 296 297 297 297 297 299 300 302 302 301 303 304 307 311 313 313 313 314
294 295 296 296 296 296 297 297 297 298 298 299 300 300 300 299 299 299 299 298 299 300 300 299 298 299 297 298 298 298 299 300 302 303 302 302 305 306 309 314 313 313 313
294 294 295 296 296 297 297 297 297 298 298 298 299 299 299 299 299 299 298 297 297 297 297 297 298 297 298 299 298 298 299 300 301 302 302 303 305 306 308 311 313 312 312
294 294 295 295 296 296 296 297 297 298 297 299 300 300 300 300 299 300 298 298 297 297 296 295 296 296 296 297 297 299 300 301 301 303 304 305 306 307 309 311 311 313 312
294 294 294 295 296 296 297 297 297 298 298 300 299 301 302 301 300 299 298 298 298 296 296 296 296 297 299 299 299 299 300 300 301 301 304 306 307 308 309 308 308 311 312

GFSMA_850_thetae_069.txt.gz
Theta_e
308 308 307 307 306 306 306 306 307 307 307 308 308 308 309 309 310 310 314 317 313 321 328 328 329 328 320 319 326 334 328 318 318 319 332 331 333 334 335 330 327 318 317
308 307 307 307 306 306 305 305 306 306 306 307 307 307 307 308 308 309 309 310 309 306 307 321 328 328 328 324 319 321 330 331 319 317 317 328 334 333 335 332 330 324 318
307 307 307 307 306 306 306 305 305 304 305 306 306 306 306 307 307 308 308 309 309 309 306 305 305 320 328 327 326 319 320 327 331 322 317 316 322 335 334 334 332 330 323
307 307 307 306 306 306 306 306 306 305 305 305 306 306 306 306 306 307 307 307 307 308 306 305 305 304 308 325 326 326 320 318 325 330 326 317 314 317 331 334 334 332 329
306 307 306 306 306 306 306 306 306 305 305 305 305 305 305 305 307 307 307 307 307 307 307 306 306 305 305 304 312 324 325 319 317 321 328 328 319 313 316 330 333 333 332
306 306 306 306 305 305 305 305 305 305 305 305 305 305 305 305 305 306 306 307 308 308 308 311 310 307 305 305 304 306 322 324 318 316 319 325 328 320 313 315 332 333 332
305 305 305 305 305 305 304 305 305 304 304 304 304 304 304 304 306 307 306 307 309 309 309 309 311 310 309 310 309 306 305 320 322 315 318 320 325 326 318 312 326 333 333
305 305 305 305 304 304 304 304 304 303 304 304 304 303 304 304 305 307 308 305 304 306 305 307 309 310 309 309 310 309 308 306 314 321 318 323 325 326 325 315 314 328 333
305 305 304 304 304 303 303 303 303 303 302 302 302 303 303 304 303 303 303 304 304 305 304 304 305 306 306 306 307 306 307 308 305 312 321 320 330 328 327 325 314 316 328
305 304 304 303 303 303 303 303 302 302 301 301 301 302 302 302 302 302 302 302 303 303 303 303 303 303 304 305 305 306 307 308 310 308 313 321 321 330 328 328 325 313 321
305 304 304 303 303 303 302 301 301 301 300 300 300 300 301 301 301 301 302 302 302 302 303 303 303 303 304 304 305 305 306 306 307 307 307 313 320 320 329 330 328 324 314
305 304 303 303 302 301 301 300 300 300 300 300 299 299 299 300 300 300 301 301 301 301 301 301 302 302 302 302 303 303 304 305 306 307 305 306 312 319 320 330 330 327 321
304 303 303 302 301 300 299 299 298 298 298 298 298 298 298 299 299 299 299 300 300 300 300 300 301 301 301 302 302 302 303 303 303 304 306 304 305 311 318 319 326 331 326
303 302 301 300 299 299 298 298 297 297 297 297 298 298 298 298 299 299 299 299 300 300 300 300 300 300 300 301 301 301 302 302 303 303 303 303 302 305 310 317 319 327 328
301 300 299 298 298 297 297 297 297 297 297 298 298 298 298 299 299 299 299 299 299 299 300 300 300 300 300 301 301 301 301 302 302 302 303 302 303 302 304 310 315 322 325
300 299 297 297 297 296 296 296 297 297 298 298 298 298 298 298 298 298 298 297 297 297 297 297 298 299 300 300 300 300 300 301 302 303 304 304 305 302 302 304 312 317 323
298 297 297 296 296 296 296 296 297 298 298 298 298 297 297 297 297 296 296 296 296 295 295 296 296 297 298 299 299 300 300 300 301 302 303 305 305 304 302 302 306 312 320
297 296 295 295 295 295 296 297 297 298 298 297 297 297 297 296 296 296 296 296 296 296 296 296 296 296 296 297 298 299 300 300 301 302 302 304 304 303 301 301 303 309 313
295 295 295 295 295 296 296 297 297 297 297 297 297 297 297 297 297 297 297 297 297 297 297 297 297 297 296 296 296 297 298 299 300 300 302 303 303 303 302 301 301 304 311
295 295 295 295 296 297 297 296 296 296 297 297 297 297 298 298 298 298 298 298 298 297 297 298 297 297 297 296 296 296 297 298 299 300 300 301 302 302 302 300 301 303 307
294 295 295 296 296 296 296 296 297 297 296 297 298 298 298 299 299 299 299 299 298 298 298 298 298 297 297 297 297 297 297 298 299 300 301 301 302 302 302 302 301 304 305
295 295 295 295 294 294 295 296 297 297 297 298 298 299 299 299 299 300 301 301 302 302 299 299 298 298 299 298 298 297 298 299 300 300 300 302 302 303 305 303 302 304 305
294 295 295 294 294 294 295 296 297 298 298 298 298 298 298 298 299 298 299 300 300 301 302 303 300 300 299 299 298 298 298 299 299 299 300 301 302 302 303 307 305 306 304
295 294 294 294 294 294 295 296 296 298 297 297 298 298 298 298 298 299 300 300 300 300 300 301 300 300 299 299 298 298 299 299 299 299 300 301 301 303 304 304 307 307 307
293 293 293 294 294 294 295 295 296 297 297 297 297 297 297 297 299 299 300 303 302 302 301 300 300 300 300 299 299 299 299 299 299 299 299 300 301 302 304 305 306 307 308
293 293 293 293 294 295 295 295 296 297 297 297 296 296 295 298 298 299 301 301 304 302 300 300 301 298 299 299 298 298 298 299 299 300 300 300 301 301 304 305 305 305 306

GFSMA_850_thetae_072.txt.gz
Theta_e
308 308 308 307 307 307 307 306 306 306 306 306 306 306 307 307 308 308 309 309 308 308 306 308 325 327 328 325 320 320 332 331 319 318 323 332 331 333 334 333 328 319 317
308 308 308 307 307 307 307 307 307 307 307 306 306 306 306 306 306 307 307 308 308 308 307 306 305 312 324 328 326 322 319 326 332 323 316 318 331 332 333 334 331 327 319
308 308 308 307 307 307 307 307 307 307 306 306 306 306 306 306 306 306 306 307 307 307 307 307 306 306 305 311 326 326 323 319 320 330 326 316 316 327 334 334 334 330 325
307 307 307 307 307 307 307 306 306 306 306 305 305 304 304 304 305 306 306 306 306 306 306 306 306 305 305 305 305 320 326 324 319 321 326 329 318 315 320 334 334 333 331
307 307 307 307 307 306 306 306 305 305 305 305 304 303 303 303 304 304 305 305 306 307 307 307 307 306 305 305 305 304 310 324 323 318 323 326 329 322 314 316 331 333 332
307 306 306 306 306 306 305 305 305 305 304 304 303 303 303 303 304 306 307 307 306 308 308 308 308 308 308 306 305 306 306 305 317 323 317 323 324 327 324 314 314 330 333
306 306 306 305 305 305 305 304 304 304 304 303 302 302 302 304 303 305 305 305 307 307 309 308 309 309 309 309 308 310 310 309 305 316 322 318 325 324 326 326 313 314 331
306 306 305 305 305 304 304 304 304 303 303 302 301 301 303 302 305 305 307 308 307 305 304 304 305 307 308 309 309 307 306 307 307 306 312 320 322 326 325 326 324 313 318
307 306 305 305 305 304 304 304 303 303 302 302 301 301 302 302 302 301 301 301 301 302 304 304 305 304 305 305 305 306 306 307 305 308 305 308 319 323 330 328 326 321 319
307 306 305 305 304 304 303 303 302 302 301 301 300 300 300 301 301 301 300 300 300 300 300 301 302 303 303 304 303 303 304 305 306 306 307 308 308 320 322 332 327 327 319
306 305 305 305 304 303 303 302 301 301 300 300 299 299 299 299 300 300 300 300 300 301 302 302 302 302 302 303 303 303 304 304 306 306 306 307 307 309 320 324 334 327 328
306 305 305 304 303 303 302 301 300 299 298 298 298 298 298 299 299 299 300 300 300 300 300 300 300 301 301 302 302 302 302 302 303 304 305 305 306 305 308 320 322 329 328
305 304 303 303 303 301 301 299 299 298 298 297 297 297 297 298 298 298 299 299 299 299 299 300 300 300 299 300 301 301 301 302 302 302 303 306 306 307 304 308 319 322 327
303 303 302 302 301 300 298 298 297 297 297 297 297 297 298 298 298 298 299 299 299 299 299 299 300 300 300 301 301 301 300 300 301 301 302 303 305 306 306 304 309 319 322
302 302 301 300 299 297 297 297 296 296 296 296 297 297 298 298 298 298 299 299 299 299 299 298 298 299 300 300 300 300 301 301 301 302 302 303 303 304 306 307 304 311 319
301 300 299 298 297 297 296 296 295 296 296 297 297 298 298 298 298 298 298 298 298 298 297 297 297 297 297 298 299 300 300 301 300 301 301 303 304 305 303 305 302 304 312
300 299 297 297 296 296 295 295 295 295 296 297 297 298 298 298 297 297 297 296 296 296 296 296 296 296 297 296 297 298 299 300 300 300 301 301 302 304 305 305 303 302 305
298 297 296 295 295 295 295 295 295 296 296 297 297 297 297 297 297 297 297 296 296 297 296 296 296 296 297 297 297 297 297 298 299 300 301 302 302 303 304 305 305 303 302
296 296 295 295 295 295 295 296 297 297 296 296 296 296 297 296 297 297 297 297 297 297 297 297 297 297 297 297 298 298 297 296 297 299 300 301 302 303 304 304 303 302 302
295 294 294 294 295 295 296 296 296 296 296 296 296 297 296 297 297 297 298 297 298 298 298 298 297 297 297 298 297 297 297 297 296 297 299 299 300 301 302 304 304 303 301
294 294 294 294 295 295 295 295 295 295 296 296 297 297 297 298 298 299 301 301 299 299 298 298 298 297 298 298 298 299 298 298 297 297 297 299 300 300 301 302 302 302 302
294 294 294 295 295 295 294 296 296 297 297 297 298 298 297 298 298 298 299 300 301 302 301 298 299 298 299 299 299 299 299 298 297 298 298 299 300 302 301 301 302 302 301
293 293 294 294 294 294 295 296 296 297 297 297 297 298 297 297 298 298 297 298 299 299 300 301 301 300 299 300 299 299 299 298 297 298 300 300 300 300 302 302 304 305 302
293 294 293 293 293 293 294 295 296 297 296 296 297 297 297 297 297 297 296 297 299 300 301 300 301 301 301 300 299 299 299 299 298 298 299 299 299 299 300 301 302 304 305
294 294 293 293 293 293 294 295 296 296 296 297 296 296 296 296 296 296 297 298 300 300 301 301 302 301 301 299 300 299 299 299 298 299 299 299 299 300 300 301 302 302 306
293 292 293 293 293 293 293 294 295 296 296 297 295 294 295 295 296 296 297 299 299 300 300 300 301 301 301 303 301 300 299 299 299 298 299 299 299 299 300 300 301 303 304

GFSMA_850_thetae_075.txt.gz
Theta_e
309 309 308 308 308 307 307 307 307 307 307 307 307 306 306 306 306 307 307 308 308 308 308 307 306 312 326 327 326 321 322 331 330 319 320 330 330 332 333 334 328 321 317
308 308 308 308 308 308 308 307 306 306 306 305 305 305 305 306 306 306 306 306 307 307 307 307 307 307 306 317 327 326 322 320 324 333 323 317 325 331 332 333 333 328 319
308 308 308 308 308 308 307 307 307 306 306 305 304 303 303 303 303 304 305 306 306 306 306 306 306 306 306 305 306 320 326 322 321 324 328 328 316 318 332 332 333 331 327
308 308 308 308 307 307 307 307 306 306 305 304 303 303 302 302 303 303 304 304 305 305 306 306 306 307 306 306 305 305 309 325 323 320 325 327 329 319 316 330 333 333 331
307 307 307 307 307 307 307 306 306 305 305 304 303 302 302 302 303 304 305 306 306 307 307 308 307 307 306 306 306 305 305 305 318 325 320 325 326 329 323 315 323 333 333
307 307 307 307 307 306 306 305 305 305 304 303 303 302 303 303 303 304 305 306 306 307 308 308 308 308 308 305 306 309 309 306 306 308 323 320 324 327 328 326 315 318 332
307 307 306 306 306 306 305 305 304 304 304 303 302 302 302 302 303 303 304 305 306 307 308 308 304 304 305 307 309 310 313 313 312 309 307 321 320 326 326 326 327 315 319
307 306 306 306 305 305 305 304 304 303 303 302 301 301 301 301 304 302 303 305 304 307 306 303 303 305 305 306 306 306 307 306 308 310 309 306 318 321 326 327 326 327 317
310 309 308 306 306 305 305 304 304 303 302 302 301 301 301 301 300 301 300 300 300 300 299 299 301 303 304 304 304 305 305 305 305 307 311 312 306 312 323 327 327 327 327
310 309 307 306 305 305 304 304 303 302 302 301 300 299 299 300 300 300 299 298 298 298 298 299 300 300 300 301 301 303 303 304 304 304 304 311 312 310 309 321 326 333 327
309 308 306 305 305 305 304 303 303 302 301 300 299 298 298 298 298 299 299 297 297 297 298 298 298 298 301 302 302 302 302 302 303 304 304 305 308 311 311 310 322 326 331
308 306 305 305 304 304 303 303 302 301 299 298 298 298 297 297 297 297 298 298 297 297 297 298 298 298 298 298 300 301 301 301 302 302 302 302 304 306 310 306 309 322 324
306 305 305 305 304 303 302 301 300 298 298 297 297 297 296 297 297 297 297 298 298 298 298 298 298 298 298 299 299 299 299 300 301 302 303 304 305 305 307 309 304 309 319
305 304 303 303 302 301 300 299 297 297 296 296 296 296 296 296 297 297 297 298 298 298 298 298 298 299 299 300 300 300 300 301 301 302 301 302 304 304 304 308 309 305 307
303 302 302 301 300 299 298 297 296 296 295 295 295 295 296 297 297 297 298 298 298 298 298 298 298 298 298 298 298 299 300 300 301 301 303 303 303 304 305 305 307 307 303
301 301 300 299 298 297 297 296 295 295 295 295 295 296 296 297 297 298 297 297 297 297 297 297 297 297 297 297 297 297 297 299 300 300 301 302 301 301 301 303 306 306 304
301 300 300 298 297 296 295 295 295 295 295 295 295 296 296 297 297 297 297 297 297 296 296 296 296 296 297 297 297 297 297 297 298 299 300 300 301 301 300 303 304 303 302
300 297 296 296 295 294 294 294 294 295 296 296 296 296 296 296 296 296 297 297 296 296 297 296 297 297 297 297 297 297 298 298 297 297 298 299 300 300 302 302 302 304 304
296 296 295 294 294 294 294 294 295 295 296 296 296 295 295 296 296 297 297 297 297 297 297 297 297 297 297 297 297 297 298 298 298 298 297 298 299 299 301 302 303 303 305
295 295 294 294 293 294 294 295 295 295 295 295 295 295 296 296 297 297 297 297 297 297 297 297 297 297 297 298 298 297 298 299 299 299 298 296 298 299 300 301 302 303 303
294 294 293 293 293 294 294 295 295 295 295 296 296 297 297 296 297 298 300 300 300 300 300 299 299 298 298 298 298 300 299 299 300 300 299 297 296 298 299 299 301 302 304
293 293 293 293 293 294 293 294 296 296 296 296 297 297 298 298 297 297 298 299 299 300 299 300 300 299 298 299 300 299 299 299 299 299 300 297 297 297 298 300 300 301 301
293 292 293 293 293 292 293 295 296 296 296 297 296 296 296 296 298 297 296 297 297 297 297 298 299 300 299 299 300 299 299 300 299 299 299 298 299 299 299 300 301 301 301
292 293 293 293 292 292 293 294 295 296 295 296 296 296 296 296 295 296 296 297 297 297 297 298 300 300 300 300 300 301 300 299 299 299 299 298 298 299 300 299 300 302 302
292 293 293 292 292 293 293 294 295 296 295 296 296 296 295 295 294 295 296 297 297 296 298 299 299 300 301 302 301 299 300 299 299 299 299 298 298 298 298 299 299 300 301
293 292 292 293 292 293 293 294 295 296 295 295 294 294 293 294 295 295 296 296 296 297 298 299 299 300 301 303 301 300 300 299 299 298 298 298 298 299 299 298 299 299 300

GFSMA_850_thetae_078.txt.gz
Theta_e
308 308 308 307 308 308 308 307 306 306 306 305 305 305 305 306 306 306 306 307 307 308 307 307 307 306 312 326 326 323 321 330 332 324 321 328 329 330 333 334 328 322 316
308 308 308 308 308 308 307 307 307 306 306 305 304 303 303 303 303 305 306 306 306 306 306 306 307 306 307 307 321 326 324 322 321 332 329 318 323 331 331 332 333 329 320
308 308 308 308 308 307 307 307 307 306 306 305 303 303 302 302 302 303 303 304 305 306 306 306 306 306 306 306 306 307 324 325 322 321 328 331 322 317 329 332 332 333 328
308 308 308 308 307 307 307 307 307 306 306 305 304 303 302 303 302 302 302 303 304 304 305 306 307 307 307 306 306 306 305 310 325 322 322 327 329 326 317 324 333 333 332
307 307 307 307 307 307 307 307 306 306 306 305 305 304 302 303 303 304 305 305 306 306 306 307 307 308 308 306 307 309 307 307 306 321 323 321 327 328 329 319 322 332 333
306 307 307 307 307 307 306 306 306 306 305 304 304 303 303 302 302 302 302 305 305 306 307 307 308 307 306 305 307 313 314 315 312 307 312 323 322 326 329 329 321 319 330
307 307 306 306 306 306 306 305 305 305 305 303 302 303 303 302 302 303 303 304 305 305 306 306 306 305 304 304 305 307 309 313 314 313 312 308 321 322 326 328 329 324 316
308 308 307 307 307 306 305 305 305 304 303 303 302 301 301 301 302 303 301 301 302 303 303 305 303 301 303 304 304 306 306 307 306 307 309 311 308 314 322 326 328 328 326
309 309 310 309 308 306 305 305 305 304 303 302 302 301 300 300 299 300 299 300 300 300 299 299 299 299 300 302 302 303 304 304 305 305 308 310 313 312 309 321 326 328 327
310 310 309 308 307 306 305 305 304 303 303 302 301 300 299 299 299 298 298 298 297 298 298 298 298 298 298 300 301 301 301 302 303 303 303 305 310 312 313 309 318 326 328
310 309 308 307 305 305 305 304 303 303 302 301 300 299 298 298 298 297 298 297 297 296 297 297 297 297 297 297 298 300 301 301 302 302 304 303 306 309 311 312 312 316 326
309 308 307 306 305 304 304 303 302 302 301 300 298 297 297 297 297 297 297 297 296 296 296 296 297 297 298 298 298 298 298 299 301 301 302 304 304 306 308 310 312 311 317
309 307 306 305 304 303 302 302 301 300 299 297 297 296 296 296 296 296 296 296 297 297 297 297 297 297 298 298 299 299 299 299 298 299 300 303 304 305 305 306 308 310 308
305 304 304 303 302 302 301 300 300 298 297 296 296 295 295 295 295 295 296 296 297 297 297 297 297 298 298 298 298 298 299 300 300 300 300 300 302 304 304 306 307 308 309
303 303 302 302 301 301 300 299 298 297 296 295 295 295 295 295 295 295 296 297 297 297 297 297 297 297 297 297 298 297 298 298 299 300 300 301 301 305 304 305 306 306 307
302 301 301 301 300 299 298 296 296 295 295 294 294 294 295 295 295 296 297 297 297 297 297 297 297 297 297 297 297 297 297 297 297 298 300 300 302 302 304 305 305 305 307
301 300 300 298 296 296 295 295 294 294 294 294 294 295 295 296 296 296 296 297 296 296 297 296 296 296 296 296 297 297 297 297 297 297 297 299 300 301 302 303 302 301 302
299 297 296 296 295 294 294 293 293 294 294 294 295 296 296 296 295 295 295 295 296 296 297 297 296 296 296 297 297 297 297 297 297 297 297 297 298 299 300 301 301 300 299
296 296 295 295 294 293 293 293 293 293 294 295 295 295 294 295 295 295 295 296 296 296 297 297 297 297 297 297 298 299 298 298 298 298 298 298 297 298 298 300 300 300 301
296 295 295 294 293 292 292 293 293 294 294 294 294 295 295 296 296 296 296 296 296 297 297 297 297 298 298 298 298 299 298 299 300 300 299 299 298 298 297 298 300 300 302
295 294 293 292 292 293 293 293 294 294 295 295 295 296 296 296 297 297 298 299 299 299 299 299 299 298 298 298 298 299 299 299 299 300 300 300 299 299 298 298 300 299 301
294 293 292 292 293 293 293 293 294 295 295 295 295 295 297 297 296 297 297 298 298 300 299 299 299 298 298 298 298 299 298 299 298 299 299 300 299 300 298 296 299 299 300
294 293 292 292 293 293 292 294 295 295 296 296 295 296 296 295 297 295 296 296 296 296 297 298 298 297 297 297 298 298 298 298 298 298 298 299 299 298 297 297 297 298 299
293 292 292 292 292 292 292 294 295 296 295 295 295 295 296 296 294 294 294 295 295 295 296 296 297 297 297 298 299 299 299 300 299 299 299 299 299 299 299 299 299 300 301
292 292 292 291 292 292 292 293 294 295 295 295 295 295 294 295 293 295 295 295 295 295 295 295 296 297 298 299 301 301 300 300 299 299 299 298 298 299 298 299 299 299 299
292 292 291 292 292 292 293 293 294 295 295 295 294 295 295 294 294 294 295 295 295 294 294 295 296 298 299 299 298 298 299 300 299 299 298 299 297 298 298 297 298 298 299